Volver al catálogo

DMSP 5D-2 F13 DEB

ActivoPO
NORAD 42271·DEBRIS·🇺🇸 United States

Lanzado Mar 24, 1995 desde Vandenberg Space Force Base

Loading…

Próximos Pases (próximas 24 horas)

TLE

ActualizadoSource: Space-Track

Época: Sep 14, 2026, 17:14 UTC

1 42271U 95015GM  26257.71831484  .00055930  00000-0  44454-2 0  9999
2 42271  98.6761 351.5641 0003347 217.8491 142.2494 15.00202918585663

Sigue DMSP 5D-2 F13 DEB en tiempo real con AllMySat

Download on the App Store